Weather in Demino

Russia / Perm Krai     58°49′07″N   54°13′49″E
temp.,
°C
wind,
m/s
gust,
m/s
humid.,
%
clouds,
%
prec.,
mm/h
press.,
hPa
HPBL,
m
26 february, fri
fri2623:00−25sse26980 0.0 102699
02:00−27sse259935 0.0 1025110
05:00−28sse259817 0.0 1026114
08:00−29sse26991 0.0 1025132
11:00−24sse36941 0.0 1024252
14:00−20sse479284 0.0 1022414
17:00−18sse499292 0.0 1021516
20:00−20sse41196100 0.0 1018495
27 february, sat
sat2723:00−20sse41296100 0.1 1016479
02:00−20se51395100 0.0 1013489
05:00−18se51394100 0.1 1012597
08:00−19ese51393100 0.1 1010548
11:00−17ese41090100 0.1 1009474
14:00−15e4988100 0.0 1008525
17:00−14e4891100 0.1 1008586
20:00−16e3994100 0.1 1008495
28 february, sun
sun2823:00−18ene3996100 0.1 1010376
02:00−20ene3997100 0.1 1010338
05:00−23ne389896 0.1 1011240
08:00−24ne389885 0.0 1011235
11:00−21ne369383 0.0 1012331
14:00−16ne368992 0.0 1012459
17:00−15nne369096 0.0 1013482
20:00−18nne239886 0.0 101459
1 march, mon
mon123:00−20nne2310082 0.1 101772
02:00−21nne2210094 0.0 101821
05:00−22n1210086 0.1 102020
08:00−23nnw1110051 0.0 102120
11:00−17wnw119025 0.0 1021171
14:00−12wsw238278 0.0 1020483
17:00−11sw258789 0.0 1018525
20:00−16sw399584 0.0 1016200
2 march, tue
tue223:00−16ssw4109374 0.0 1014335
02:00−14ssw51288100 0.0 1011442
05:00−14ssw51294100 0.3 1008472
08:00−14ssw51094100 0.9 1005510
11:00−13ssw4991100 1.7 1003471
14:00−10ssw4791100 0.4 1002457
17:00−8ssw4792100 0.6 1001433
20:00−9ssw499598 0.3 1000298